When you browse on this site, cookies collect data to enhance your experience and personalize the content and advertising you see.
Visit our Privacy Policy to learn more. By continuing to use the site, you agree to this use of cookies and data.
EN

Hourly Weather Pylatkivtsi

Today, 14 July, Tuesday

Time Temperature Precipitation Wind Pressure Humidity
00:00 +12°C° 0 mm 3 mps 741 mmHg 99%
01:00 +12°C° 0 mm 3 mps 741 mmHg 100%
02:00 +10°C° 0 mm 2 mps 741 mmHg 97%
03:00 +9°C° 0 mm 3 mps 741 mmHg 99%
04:00 +9°C° 0 mm 3 mps 740 mmHg 100%
05:00 +9°C° 0 mm 3 mps 741 mmHg 100%
06:00 +10°C° 0 mm 4 mps 741 mmHg 97%
07:00 +11°C° 0 mm 4 mps 741 mmHg 95%
08:00 +13°C° 0 mm 4 mps 741 mmHg 92%
09:00 +15°C° 0 mm 4 mps 741 mmHg 88%
10:00 +17°C° 0 mm 4 mps 741 mmHg 85%
11:00 +18°C° 0 mm 4 mps 741 mmHg 81%
12:00 +19°C° 0.2 mm 4 mps 741 mmHg 76%
13:00 +19°C° 0.6 mm 4 mps 741 mmHg 77%
14:00 +20°C° 0.2 mm 4 mps 740 mmHg 73%
15:00 +20°C° 0.1 mm 4 mps 740 mmHg 69%
16:00 +20°C° 0.1 mm 4 mps 740 mmHg 71%
17:00 +20°C° 0.3 mm 3 mps 740 mmHg 72%
18:00 +20°C° 0 mm 3 mps 740 mmHg 73%
19:00 +19°C° 0 mm 3 mps 740 mmHg 75%
20:00 +18°C° 0 mm 2 mps 740 mmHg 84%
21:00 +18°C° 0 mm 1 mps 740 mmHg 88%
22:00 +16°C° 0 mm 1 mps 739 mmHg 94%
23:00 +15°C° 0 mm 1 mps 739 mmHg 97%

Tomorrow, 15 July, Wednesday

Time Temperature Precipitation Wind Pressure Humidity
00:00 +15°C° 0 mm 1 mps 740 mmHg 99%
01:00 +15°C° 0 mm 1 mps 740 mmHg 98%
02:00 +14°C° 0 mm 1 mps 740 mmHg 98%
03:00 +14°C° 0 mm 1 mps 740 mmHg 99%
04:00 +14°C° 0 mm 1 mps 739 mmHg 99%
05:00 +13°C° 0 mm 2 mps 739 mmHg 100%
06:00 +14°C° 0 mm 1 mps 739 mmHg 100%
07:00 +15°C° 0 mm 1 mps 740 mmHg 98%
08:00 +18°C° 0 mm 1 mps 740 mmHg 97%
09:00 +19°C° 0 mm 1 mps 740 mmHg 92%
10:00 +20°C° 0 mm 1 mps 740 mmHg 88%
11:00 +21°C° 0 mm 1 mps 740 mmHg 83%
12:00 +22°C° 0 mm 1 mps 740 mmHg 81%
13:00 +22°C° 0 mm 1 mps 740 mmHg 78%
14:00 +23°C° 0 mm 1 mps 740 mmHg 75%
15:00 +23°C° 0 mm 1 mps 739 mmHg 73%
16:00 +22°C° 0 mm 0 mps 739 mmHg 72%
17:00 +24°C° 0 mm 1 mps 739 mmHg 71%
18:00 +23°C° 0 mm 1 mps 738 mmHg 75%
19:00 +23°C° 0 mm 2 mps 738 mmHg 82%
20:00 +21°C° 0 mm 2 mps 738 mmHg 89%
21:00 +20°C° 0 mm 2 mps 738 mmHg 92%
22:00 +19°C° 0 mm 2 mps 738 mmHg 94%
23:00 +19°C° 0 mm 1 mps 738 mmHg 92%

Day after tomorrow, 16 July, Thursday

Time Temperature Precipitation Wind Pressure Humidity
00:00 +18°C° 0 mm 2 mps 738 mmHg 92%
01:00 +17°C° 0 mm 2 mps 738 mmHg 96%
02:00 +17°C° 0 mm 2 mps 738 mmHg 99%
03:00 +16°C° 0 mm 2 mps 737 mmHg 100%
04:00 +16°C° 0 mm 2 mps 737 mmHg 100%
05:00 +16°C° 0 mm 2 mps 737 mmHg 100%
06:00 +16°C° 0 mm 2 mps 736 mmHg 99%
07:00 +18°C° 0 mm 2 mps 737 mmHg 97%
08:00 +19°C° 0 mm 2 mps 737 mmHg 97%
09:00 +20°C° 0 mm 2 mps 737 mmHg 96%
10:00 +23°C° 0 mm 2 mps 737 mmHg 94%
11:00 +24°C° 0 mm 2 mps 736 mmHg 93%
12:00 +24°C° 0 mm 2 mps 736 mmHg 90%
13:00 +25°C° 0 mm 1 mps 736 mmHg 87%
14:00 +25°C° 0.1 mm 5 mps 735 mmHg 86%
15:00 +23°C° 3.9 mm 2 mps 735 mmHg 87%
16:00 +24°C° 0.6 mm 3 mps 735 mmHg 94%
17:00 +23°C° 1.9 mm 1 mps 734 mmHg 83%
18:00 +24°C° 0 mm 2 mps 734 mmHg 87%
19:00 +22°C° 0 mm 3 mps 734 mmHg 94%
20:00 +20°C° 0 mm 3 mps 734 mmHg 94%
21:00 +20°C° 0 mm 1 mps 734 mmHg 97%
22:00 +19°C° 0 mm 2 mps 734 mmHg 97%
23:00 +20°C° 0 mm 1 mps 734 mmHg 94%

17 July, Friday

Time Temperature Precipitation Wind Pressure Humidity
00:00 +19°C° 0 mm 1 mps 734 mmHg 98%
01:00 +18°C° 0 mm 2 mps 734 mmHg 99%
02:00 +18°C° 0 mm 3 mps 734 mmHg 100%
03:00 +17°C° 0 mm 3 mps 734 mmHg 100%
04:00 +18°C° 0 mm 3 mps 734 mmHg 99%
05:00 +17°C° 0 mm 3 mps 735 mmHg 98%
06:00 +17°C° 0 mm 3 mps 735 mmHg 98%
07:00 +18°C° 0 mm 3 mps 735 mmHg 96%
08:00 +18°C° 0 mm 3 mps 735 mmHg 96%
09:00 +18°C° 0 mm 3 mps 736 mmHg 97%
10:00 +18°C° 0 mm 3 mps 736 mmHg 95%
11:00 +20°C° 0 mm 2 mps 736 mmHg 93%
12:00 +21°C° 0 mm 2 mps 736 mmHg 88%
13:00 +21°C° 0 mm 3 mps 736 mmHg 86%
14:00 +23°C° 0 mm 2 mps 736 mmHg 81%
15:00 +23°C° 0 mm 2 mps 736 mmHg 81%
16:00 +23°C° 0 mm 2 mps 735 mmHg 82%
17:00 +24°C° 0 mm 2 mps 736 mmHg 80%
18:00 +23°C° 0 mm 2 mps 735 mmHg 85%
19:00 +21°C° 0 mm 2 mps 735 mmHg 90%
20:00 +22°C° 0 mm 1 mps 736 mmHg 94%
21:00 +21°C° 0 mm 1 mps 736 mmHg 96%
22:00 +21°C° 0 mm 1 mps 736 mmHg 97%
23:00 +20°C° 0 mm 2 mps 736 mmHg 98%

18 July, Saturday

Time Temperature Precipitation Wind Pressure Humidity
00:00 +20°C° 0 mm 1 mps 736 mmHg 98%
01:00 +20°C° 0 mm 1 mps 736 mmHg 99%
02:00 +20°C° 0 mm 1 mps 736 mmHg 99%
03:00 +20°C° 0 mm 1 mps 736 mmHg 100%
04:00 +19°C° 0 mm 1 mps 736 mmHg 100%
05:00 +17°C° 0 mm 2 mps 736 mmHg 100%
06:00 +18°C° 0 mm 2 mps 736 mmHg 100%
07:00 +19°C° 0 mm 1 mps 737 mmHg 99%
08:00 +20°C° 0 mm 1 mps 737 mmHg 97%
09:00 +19°C° 0.5 mm 3 mps 737 mmHg 99%
10:00 +19°C° 3 mm 5 mps 737 mmHg 98%
11:00 +17°C° 18.3 mm 5 mps 737 mmHg 96%
12:00 +18°C° 3 mm 4 mps 738 mmHg 97%
13:00 +19°C° 2.5 mm 3 mps 737 mmHg 96%
14:00 +21°C° 0 mm 3 mps 737 mmHg 88%
15:00 +21°C° 0 mm 2 mps 737 mmHg 90%
16:00 +23°C° 0 mm 2 mps 736 mmHg 92%
17:00 +23°C° 0 mm 2 mps 736 mmHg 91%
18:00 +24°C° 0 mm 2 mps 736 mmHg 91%
19:00 +24°C° 0 mm 1 mps 736 mmHg 93%
20:00 +23°C° 0 mm 1 mps 736 mmHg 96%
21:00 +22°C° 0 mm 1 mps 736 mmHg 98%
22:00 +21°C° 0 mm 2 mps 736 mmHg 100%
23:00 +21°C° 0 mm 2 mps 736 mmHg 100%

19 July, Sunday

Time Temperature Precipitation Wind Pressure Humidity
00:00 +21°C° 0 mm 2 mps 736 mmHg 100%
01:00 +20°C° 0 mm 3 mps 735 mmHg 100%
02:00 +21°C° 0 mm 3 mps 735 mmHg 99%
03:00 +20°C° 0 mm 3 mps 735 mmHg 100%
04:00 +20°C° 0 mm 3 mps 735 mmHg 100%
05:00 +20°C° 0 mm 3 mps 735 mmHg 100%
06:00 +20°C° 0 mm 3 mps 735 mmHg 100%
07:00 +20°C° 0 mm 4 mps 735 mmHg 99%
08:00 +19°C° 2.2 mm 3 mps 735 mmHg 96%
09:00 +19°C° 2.2 mm 3 mps 735 mmHg 98%
10:00 +20°C° 2.2 mm 3 mps 736 mmHg 98%
11:00 +21°C° 1.9 mm 4 mps 735 mmHg 92%
12:00 +23°C° 0 mm 1 mps 735 mmHg 90%
13:00 +23°C° 0.5 mm 2 mps 735 mmHg 88%
14:00 +23°C° 0 mm 2 mps 734 mmHg 85%
15:00 +24°C° 0 mm 2 mps 734 mmHg 85%
16:00 +22°C° 0 mm 0 mps 733 mmHg 83%
17:00 +24°C° 0 mm 1 mps 733 mmHg 83%
18:00 +24°C° 0 mm 1 mps 733 mmHg 84%
19:00 +24°C° 0 mm 1 mps 733 mmHg 90%
20:00 +23°C° 0 mm 1 mps 733 mmHg 95%
21:00 +22°C° 0 mm 1 mps 733 mmHg 97%
22:00 +22°C° 0 mm 1 mps 733 mmHg 99%
23:00 +21°C° 0 mm 1 mps 733 mmHg 100%
Show more